カタログに戻る

SITRO-AIS-23

運用中通信SSO
NORAD 61742·PAYLOAD·🇷🇺 Russia
この衛星名は、まだ公式ソースで確認されていません。

打ち上げ Nov 4, 2024 から Vostochny Cosmodrome

Loading…

次のパス (今後24時間)

TLE

最新Source: Space-Track

元期: Sep 14, 2026, 13:53 UTC

1 61742U 24199H   26257.57851089  .00001433  00000-0  13136-3 0  9998
2 61742  97.3220  89.8674 0013545 117.5594 242.7006 14.96282195145139

AllMySatでSITRO-AIS-23をリアルタイム追跡

Download on the App Store